Location: Flotzheim
(48.8375°N, 10.8136°E)
Time: 04:16:56
(UTC+00:00)

Cosmos 1428 Rocket - Pass Details

Date: 23 January 2021
Orbit: 947 x 988 km, 82.9° (Epoch: 26 February)

Event Time Altitude Azimuth Distance (km) Brightness Sun altitude
Rises 17:51:46 0° 175° (S) 3,674 7.6 -18.1°
Reaches altitude 10° 17:54:18 10° 172° (S) 2,734 6.8 -18.5°
Maximum altitude 18:00:28 62° 93° (E) 1,108 4.5 -19.5°
Drops below altitude 10° 18:06:42 10° 15° (NNE) 2,760 6.7 -20.5°
Sets 18:09:15 0° 12° (NNE) 3,712 7.4 -21.0°
